[[{"header":{"parameterUnit":"m.s-1","parameterCategory":2,"la1":30.2991,"la2":30.254,"lo1":-89.0895,"lo2":-89.0444,"dy":0.0017,"dx":0.0017,"nx":28,"ny":28,"refTime":"2025-08-03T21:00:00:Z","depth":"0","parameterNumber":2,"parameterNumberName":"U-component_of_CURRENTS"},"data":[0,0,0,0,0,0,0,0,0,0,0,0,0,0,0,0,0,0,0,0,0,0,0,0,0,0,0,0,0,0,0,0,0,0,0,0,0,0,0,0,0,0,0,0,0,0,0,0,0,0,0,0,0,0,0,0,0,0,0.1592,0.1592,0,0.1558,0.1558,0.1557,0.1518,0.1517,0.1517,0.1517,0.1405,0.1402,0.1399,0,0,0,0,0,0,0,0,0,0,0,0,0,0.1568,0.1569,0.1592,0.1592,0.1592,0.1558,0.1558,0.1557,0.1518,0.1517,0.1517,0.1517,0.1406,0.1402,0.1399,0,0,0,0,0,0,0,0,0,0,0,0,0,0.1557,0.1569,0.1592,0.1572,0.157,0.1559,0.1558,0.1556,0.1518,0.1517,0.1517,0.1517,0.1407,0.1403,0.1398,0.1379,0,0,0.1386,0.1384,0,0,0,0,0,0,0,0,0.1558,0.1558,0.1575,0.1573,0.1571,0.1546,0.1508,0.1495,0.1518,0.1533,0.1517,0.1517,0.1447,0.144,0.1429,0.1374,0.1369,0.1385,0.1383,0.1381,0.138,0,0,0,0,0,0,0,0.1559,0.1559,0.1574,0.1575,0.1572,0.1546,0.1544,0.1505,0.1488,0.1532,0.153,0.1533,0.1445,0.1434,0.1426,0.1367,0.1385,0.1382,0.1379,0.1377,0.1356,0.1358,0,0,0,0,0,0,0.1575,0.156,0.1576,0.1574,0.1568,0.1547,0.1545,0.1551,0.149,0.1482,0.1533,0.1531,0.1441,0.1431,0.1422,0.1526,0.1381,0.1377,0.1375,0.1354,0.1357,0.1359,0,0,0,0,0,0,0.1575,0.1577,0.1577,0.1569,0.1568,0.1549,0.1555,0.155,0.1538,0.1493,0.1482,0.1527,0.144,0.1428,0.1393,0.1516,0.1375,0.1371,0.1352,0.1355,0.1358,0.1649,0,0,0,0,0,0,0.1574,0.1577,0.1587,0.157,0.1569,0.1568,0.1556,0.155,0.1542,0.1539,0.1483,0.1473,0.1439,0.1399,0.1388,0.1508,0.1368,0.135,0.1353,0.1357,0.1637,0.1662,0.1683,0,0,0,0,0,0.1573,0.1585,0.1588,0.159,0.1584,0.1569,0.1565,0.1547,0.1543,0.1535,0.1504,0.1474,0.1417,0.1396,0.1383,0.1505,0.1348,0.1352,0.1357,0.1627,0.1657,0.1682,0,0,0,0,0,0,0.1575,0.1582,0.1585,0.1597,0.1586,0.1564,0.156,0.155,0.1521,0.1521,0.1474,0.1461,0.1496,0.1423,0.1403,0.1501,0.1387,0.1389,0.1597,0.1625,0.1647,0.1735,0.1365,0,0,0,0,0,0.1585,0.1599,0.1592,0.1602,0.1599,0.1582,0.1575,0.1566,0.1542,0.1529,0.1499,0.1477,0.1504,0.1497,0.1477,0.1502,0.1517,0.1572,0.1595,0.1616,0.1674,0.179,0.1833,0.1373,0.1373,0.1373,0,0,0.1591,0.1597,0.1605,0.1605,0.1595,0.161,0.1575,0.157,0.1624,0.152,0.1563,0.1546,0.1522,0.1584,0.1594,0.1539,0.1751,0.1621,0.164,0.1688,0.18,0.1846,0.1887,0.1376,0.1376,0.1375,0,0,0.1601,0.1612,0.1621,0.1621,0.1618,0.1624,0.1626,0.1612,0.1647,0.1656,0.166,0.1718,0.1657,0.1747,0.177,0.1891,0.1868,0.1862,0.2062,0.2175,0.2217,0.2254,0.234,0.2382,0.1876,0.1877,0.1877,0,0.1606,0.163,0.1619,0.1628,0.1656,0.1638,0.167,0.1707,0.1694,0.176,0.1686,0.1777,0.1771,0.196,0.2038,0.1965,0.199,0.1976,0.2217,0.2253,0.2286,0.2365,0.2408,0.1892,0.189,0.1888,0.1887,0,0.1622,0.1648,0.1652,0.1683,0.1707,0.1725,0.1783,0.1832,0.1856,0.19,0.2041,0.2049,0.2111,0.2152,0.2145,0.2406,0.2337,0.2242,0.2174,0.2352,0.2421,0.2461,0.1912,0.1907,0.1903,0.1899,0,0,0.1618,0.166,0.1663,0.1708,0.1748,0.1775,0.19,0.202,0.2119,0.216,0.2305,0.2455,0.2465,0.2497,0.2523,0.2669,0.2956,0.2583,0.2582,0.2717,0.3202,0.3154,0.3191,0.2901,0.2909,0.2915,0.3162,0,0.1639,0.1688,0.1715,0.1801,0.1843,0.1911,0.202,0.2139,0.222,0.234,0.2484,0.2577,0.2596,0.2635,0.2814,0.2893,0.3071,0.2898,0.2966,0.2969,0.2947,0.324,0.3188,0.3405,0.32,0.3207,0.3211,0,0.165,0.1695,0.1774,0.1899,0.1923,0.1979,0.2177,0.2267,0.2464,0.2521,0.2687,0.2731,0.3014,0.2932,0.3275,0.3152,0.3245,0.3305,0.3311,0.3205,0.2999,0.3185,0.3483,0.341,0.3271,0.3266,0.3262,0,0.1672,0.1751,0.1835,0.1867,0.1985,0.2074,0.215,0.2324,0.2418,0.2634,0.2682,0.2965,0.3057,0.3269,0.3424,0.3361,0.3734,0.3618,0.3683,0.3676,0.362,0.3595,0.3905,0.3902,0.3902,0.3901,0.39,0,0.1702,0.1768,0.1845,0.1891,0.2009,0.2085,0.2218,0.2339,0.2478,0.2586,0.2763,0.2888,0.3147,0.3353,0.3505,0.3742,0.38,0.3828,0.3789,0.3711,0.3693,0.3603,0.3554,0.391,0.3908,0.3906,0.3905,0,0.1727,0.1757,0.1865,0.1988,0.2015,0.2105,0.2201,0.2278,0.2413,0.2555,0.2617,0.2875,0.3156,0.3395,0.3715,0.3808,0.3962,0.4082,0.397,0.3917,0.3888,0.3853,0.3916,0.3828,0.4241,0.4242,0.4243,0,0.1762,0.1812,0.1921,0.194,0.199,0.2082,0.2114,0.2241,0.2303,0.2541,0.2602,0.29,0.3113,0.3566,0.3823,0.4127,0.4006,0.4208,0.4118,0.3999,0.3932,0.3676,0.3577,0.4156,0.4156,0.4156,0.4156,0,0.1857,0.1879,0.1941,0.1946,0.1979,0.2025,0.2083,0.2118,0.2262,0.2379,0.2567,0.2756,0.321,0.3525,0.3906,0.4085,0.4037,0.4216,0.4157,0.4009,0.3694,0.3545,0.3838,0.4157,0.4157,0.4157,0.4157,0.4157,0.1937,0.194,0.1949,0.1965,0.1967,0.1949,0.1953,0.2011,0.2093,0.2249,0.247,0.2723,0.3242,0.3792,0.3917,0.4152,0.4043,0.4154,0.4161,0.3937,0.3765,0.4059,0.4264,0.4264,0.4265,0.4265,0.4265,0,0.1969,0.1925,0.1943,0.1916,0.1872,0.1892,0.1898,0.1875,0.1923,0.2152,0.2322,0.2849,0.3257,0.3659,0.4108,0.4112,0.3916,0.4076,0.3757,0.3692,0.4063,0.3971,0.4042,0.4042,0.4042,0.4042,0.4042,0.4042,0.1985,0.1936,0.1898,0.182,0.1781,0.1677,0.1659,0.1659,0.1768,0.2005,0.2276,0.2563,0.3179,0.383,0.4075,0.4044,0.3796,0.3682,0.3613,0.3938,0.3944,0.3949,0.3853,0.3899,0.3898,0.3082,0.3077,0.3073]},{"header":{"parameterUnit":"m.s-1","parameterCategory":2,"la1":30.2991,"la2":30.254,"lo1":-89.0895,"lo2":-89.0444,"dy":0.0017,"dx":0.0017,"nx":28,"ny":28,"refTime":"2025-08-03T21:00:00:Z","depth":"0","parameterNumber":3,"parameterNumberName":"V-component_of_CURRENTS"},"data":[0,0,0,0,0,0,0,0,0,0,0,0,0,0,0,0,0,0,0,0,0,0,0,0,0,0,0,0,0,0,0,0,0,0,0,0,0,0,0,0,0,0,0,0,0,0,0,0,0,0,0,0,0,0,0,0,0,0,-0.0148,-0.0147,0,-0.01,-0.01,-0.0099,-0.0071,-0.0071,-0.0071,-0.007,-0.004,-0.0039,-0.0038,0,0,0,0,0,0,0,0,0,0,0,0,0,-0.0193,-0.0192,-0.0148,-0.0147,-0.0147,-0.0101,-0.01,-0.0099,-0.0071,-0.0071,-0.007,-0.007,-0.004,-0.0039,-0.0038,0,0,0,0,0,0,0,0,0,0,0,0,0,-0.0161,-0.0192,-0.0148,-0.0128,-0.0125,-0.0101,-0.01,-0.0099,-0.0071,-0.0071,-0.007,-0.007,-0.004,-0.0039,-0.0038,-0.0033,0,0,-0.0035,-0.0034,0,0,0,0,0,0,0,0,-0.0163,-0.016,-0.0131,-0.0129,-0.0126,-0.0092,-0.0104,-0.0078,-0.0071,-0.0091,-0.007,-0.007,-0.0059,-0.0057,-0.0047,-0.0032,-0.0031,-0.0035,-0.0034,-0.0033,-0.0033,0,0,0,0,0,0,0,-0.0166,-0.0162,-0.0128,-0.0131,-0.0128,-0.0114,-0.0109,-0.0099,-0.0076,-0.0089,-0.0087,-0.0083,-0.0058,-0.0048,-0.0046,-0.003,-0.0035,-0.0034,-0.0033,-0.0033,0.0031,0.0032,0,0,0,0,0,0,-0.0174,-0.0164,-0.013,-0.0127,-0.0146,-0.0113,-0.0108,-0.0103,-0.0076,-0.0071,-0.0083,-0.0082,-0.005,-0.0047,-0.0045,0.0097,-0.0033,-0.0032,-0.0032,0.003,0.0031,0.0032,0,0,0,0,0,0,-0.0175,-0.0171,-0.0132,-0.0145,-0.0139,-0.0113,-0.0107,-0.0102,-0.0094,-0.0071,-0.0067,-0.0081,-0.005,-0.0046,-0.0024,0.0093,-0.0032,-0.0031,0.0029,0.003,0.0032,0.0295,0,0,0,0,0,0,-0.0177,-0.0172,-0.0177,-0.0146,-0.0139,-0.0127,-0.0107,-0.0101,-0.0092,-0.009,-0.0068,-0.0065,-0.0049,-0.0026,-0.0023,0.0093,-0.003,0.0027,0.0029,0.0031,0.0285,0.0305,0.0322,0,0,0,0,0,-0.0178,-0.0184,-0.0177,-0.0174,-0.0144,-0.0128,-0.0123,-0.0103,-0.0092,-0.0095,-0.0064,-0.0066,-0.0011,-0.0024,-0.0021,0.0098,0.0026,0.0029,0.0031,0.0276,0.0301,0.0322,0,0,0,0,0,0,-0.0197,-0.018,-0.0173,-0.0171,-0.0156,-0.0123,-0.0121,-0.0108,-0.0085,-0.0079,-0.0056,-0.0051,0.0016,-0.0017,-0.0031,0.0107,0.0008,0.0011,0.0194,0.0217,0.0235,0.0377,-0.0029,0,0,0,0,0,-0.0206,-0.0214,-0.0187,-0.0188,-0.0179,-0.0151,-0.0144,-0.0128,-0.0102,-0.0093,-0.0071,-0.0042,0.0026,0.0059,0.007,0.0143,0.0104,0.0211,0.023,0.0247,0.0356,0.0331,0.036,0.004,0.004,0.004,0,0,-0.0214,-0.0207,-0.021,-0.0195,-0.0177,-0.0102,-0.0146,-0.0134,-0.0013,-0.0093,0.0037,0.0008,0.0046,0.0148,0.0176,0.0145,0.0303,0.025,0.0266,0.0368,0.0337,0.0369,0.0398,0.0041,0.0041,0.0041,0,0,-0.0224,-0.0224,-0.0226,-0.0195,-0.0174,-0.0109,-0.0104,-0.0072,-0.0004,0.0074,0.009,0.0138,0.0176,0.0287,0.0343,0.0459,0.0385,0.0421,0.0678,0.065,0.0679,0.0704,0.0654,0.0673,0.0456,0.0456,0.0457,0,-0.0229,-0.0192,-0.0224,-0.0188,-0.0081,-0.0094,0.0025,0.0084,0.0129,0.0256,0.0134,0.0299,0.0289,0.0554,0.0609,0.0527,0.0462,0.0607,0.0685,0.0708,0.073,0.0673,0.0691,0.0469,0.0468,0.0466,0.0465,0,-0.0217,-0.0159,-0.0148,-0.005,0.0044,0.012,0.0249,0.0349,0.0414,0.0491,0.0667,0.0623,0.0748,0.0734,0.0734,0.093,0.0814,0.0694,0.0652,0.078,0.0708,0.0722,0.0488,0.0483,0.0479,0.0476,0,0,-0.0235,-0.0148,-0.013,0.0027,0.0159,0.0286,0.0513,0.0779,0.0985,0.0966,0.1207,0.1304,0.1235,0.1293,0.1244,0.1253,0.1315,0.1072,0.1064,0.1071,0.1232,0.1151,0.1155,0.1183,0.1187,0.1191,0.1107,0,-0.0169,-0.0031,0.003,0.0325,0.0478,0.0646,0.0897,0.1127,0.125,0.1429,0.1462,0.1571,0.1463,0.1477,0.1499,0.1344,0.137,0.1351,0.1069,0.1064,0.1016,0.1178,0.1142,0.1066,0.1119,0.1122,0.1123,0,-0.0124,0.0008,0.0247,0.0658,0.0752,0.0944,0.1448,0.1646,0.1893,0.195,0.2059,0.1984,0.209,0.1858,0.1793,0.1764,0.1584,0.1427,0.1415,0.1293,0.1014,0.0948,0.1087,0.0803,0.1143,0.1141,0.114,0,-0.0029,0.0236,0.0485,0.0593,0.0968,0.1227,0.1492,0.1816,0.2031,0.2233,0.2273,0.2367,0.2308,0.2171,0.1869,0.1821,0.1676,0.1534,0.1323,0.1309,0.1218,0.1191,0.1113,0.1518,0.1518,0.1519,0.1519,0,0.0084,0.0321,0.0554,0.0698,0.1159,0.1373,0.1822,0.207,0.2298,0.2503,0.2504,0.2565,0.2361,0.2224,0.1984,0.171,0.176,0.1464,0.133,0.1295,0.1278,0.097,0.0839,0.1515,0.1516,0.1517,0.1517,0,0.0207,0.0267,0.0641,0.1041,0.1187,0.1552,0.2006,0.2262,0.243,0.265,0.2682,0.2699,0.2546,0.2313,0.203,0.1812,0.1402,0.1441,0.1414,0.1285,0.0872,0.0758,0.0649,0.0472,0.1269,0.1267,0.1265,0,0.0315,0.0467,0.0883,0.1089,0.1294,0.175,0.2016,0.2321,0.2511,0.2712,0.2777,0.2711,0.2685,0.2292,0.1919,0.1566,0.1311,0.1271,0.1236,0.0948,0.0718,0.0646,0.0498,0.1173,0.1171,0.1169,0.1167,0,0.0654,0.0735,0.1012,0.1315,0.1625,0.1981,0.2338,0.2477,0.2737,0.2854,0.2932,0.292,0.2607,0.227,0.1808,0.1541,0.1089,0.1225,0.0941,0.0724,0.0633,0.0359,0.1093,0.1152,0.1154,0.1155,0.1156,0.1156,0.0969,0.1167,0.1359,0.1679,0.1933,0.2133,0.2385,0.26,0.2828,0.2976,0.2995,0.3001,0.2584,0.1994,0.1572,0.0873,0.0939,0.0673,0.0578,0.0546,0.0362,0.1084,0.0972,0.0973,0.0973,0.0974,0.0974,0,0.1333,0.1423,0.1708,0.1985,0.2154,0.2244,0.2529,0.2676,0.2838,0.2996,0.307,0.2916,0.2289,0.1693,0.08,0.0299,0.0109,0.0048,-0.0068,-0.0179,0.0466,0.0443,0.0196,0.0196,0.0196,0.0197,0.0197,0.0197,0.155,0.1759,0.178,0.2062,0.2206,0.2408,0.2521,0.2678,0.2831,0.2981,0.3047,0.3126,0.2756,0.1177,0.0011,-0.0294,-0.0707,-0.0695,-0.0917,-0.05,-0.045,-0.0403,-0.0455,-0.0887,-0.0888,-0.1548,-0.1554,-0.1559]}],[{"header":{"parameterUnit":"m.s-1","parameterCategory":2,"la1":30.2991,"la2":30.254,"lo1":-89.0895,"lo2":-89.0444,"dy":0.0017,"dx":0.0017,"nx":28,"ny":28,"refTime":"2025-08-03T21:00:00:Z","depth":"2","parameterNumber":2,"parameterNumberName":"U-component_of_CURRENTS"},"data":[0,0,0,0,0,0,0,0,0,0,0,0,0,0,0,0,0,0,0,0,0,0,0,0,0,0,0,0,0,0,0,0,0,0,0,0,0,0,0,0,0,0,0,0,0,0,0,0,0,0,0,0,0,0,0,0,0,0,0.181,0.1811,0,0.1892,0.1892,0.1893,0.1894,0.1894,0.1894,0.1893,0.194,0.1942,0.1944,0,0,0,0,0,0,0,0,0,0,0,0,0,0.1616,0.1619,0.181,0.1811,0.1813,0.1892,0.1892,0.1893,0.1895,0.1894,0.1893,0.1893,0.194,0.1942,0.1944,0,0,0,0,0,0,0,0,0,0,0,0,0,0.1693,0.162,0.181,0.1828,0.1831,0.1892,0.1892,0.1893,0.1895,0.1894,0.1893,0.1893,0.1939,0.1942,0.1944,0.1974,0,0,0.1952,0.1953,0,0,0,0,0,0,0,0,0.1689,0.17,0.1824,0.1827,0.183,0.1888,0.1842,0.192,0.1895,0.1864,0.1893,0.1892,0.1924,0.1928,0.1937,0.1976,0.1978,0.1952,0.1954,0.1955,0.1956,0,0,0,0,0,0,0,0.1683,0.1696,0.1836,0.1826,0.183,0.1819,0.1829,0.1856,0.1891,0.1867,0.1868,0.1887,0.1925,0.1934,0.1938,0.1979,0.1952,0.1954,0.1956,0.1957,0.2106,0.2109,0,0,0,0,0,0,0.1689,0.1692,0.1834,0.1839,0.1763,0.1824,0.1834,0.1865,0.1892,0.1898,0.1888,0.1887,0.193,0.1935,0.1939,0.1999,0.1955,0.1957,0.1959,0.2104,0.2107,0.211,0,0,0,0,0,0,0.1685,0.1702,0.183,0.1771,0.1787,0.1829,0.1862,0.1867,0.1877,0.191,0.1913,0.1894,0.193,0.1936,0.1973,0.2,0.1958,0.1961,0.2101,0.2105,0.2108,0.2103,0,0,0,0,0,0,0.1679,0.17,0.1717,0.1772,0.1791,0.1868,0.1864,0.1869,0.1893,0.1892,0.1916,0.192,0.193,0.1969,0.1975,0.2003,0.1963,0.2098,0.2103,0.2107,0.21,0.2106,0.2112,0,0,0,0,0,0.1672,0.17,0.1718,0.1735,0.1817,0.1869,0.1877,0.1899,0.1894,0.1903,0.1923,0.1919,0.2003,0.1972,0.1979,0.2008,0.2096,0.2102,0.2107,0.2098,0.2105,0.2111,0,0,0,0,0,0,0.1625,0.1706,0.1725,0.1777,0.1822,0.1872,0.1885,0.1901,0.1924,0.1921,0.1938,0.1945,0.1995,0.2009,0.1974,0.2071,0.2054,0.2061,0.2046,0.2053,0.2058,0.2073,0.1965,0,0,0,0,0,0.1626,0.1669,0.1737,0.1778,0.1798,0.184,0.1862,0.1882,0.1916,0.1924,0.1944,0.1978,0.2026,0.204,0.208,0.212,0.2148,0.2152,0.2157,0.2161,0.2183,0.2246,0.2258,0.2128,0.2128,0.2128,0,0,0.1626,0.1671,0.1698,0.177,0.1801,0.1841,0.1849,0.1888,0.1924,0.1928,0.1967,0.1996,0.2044,0.2096,0.212,0.2105,0.2213,0.2168,0.2171,0.2191,0.2253,0.2265,0.2276,0.2132,0.2131,0.213,0,0,0.1631,0.1678,0.1708,0.1745,0.1802,0.1838,0.1851,0.1903,0.1925,0.1971,0.1997,0.2044,0.2092,0.2141,0.2171,0.2236,0.2244,0.2249,0.2279,0.2339,0.2349,0.2359,0.2396,0.2409,0.2245,0.2245,0.2245,0,0.162,0.1684,0.1722,0.1753,0.1799,0.1837,0.1883,0.1912,0.197,0.2011,0.1983,0.2104,0.2121,0.2223,0.2239,0.2247,0.2274,0.2237,0.2343,0.2353,0.2363,0.2399,0.2413,0.2246,0.2246,0.2246,0.2245,0,0.1651,0.1699,0.1717,0.1782,0.1825,0.1874,0.1932,0.1973,0.2001,0.2041,0.2132,0.2162,0.2243,0.2252,0.2256,0.2355,0.2348,0.234,0.2314,0.2375,0.241,0.2425,0.2246,0.2246,0.2246,0.2246,0,0,0.1643,0.1727,0.1735,0.1785,0.1856,0.1907,0.1967,0.2063,0.2128,0.2157,0.2241,0.2305,0.2326,0.2365,0.2386,0.2421,0.2489,0.2403,0.2406,0.242,0.261,0.2487,0.2492,0.2492,0.2495,0.2497,0.2599,0,0.1663,0.174,0.1779,0.1868,0.1924,0.1987,0.2054,0.2134,0.2191,0.2269,0.2316,0.2394,0.237,0.2409,0.2445,0.2488,0.2532,0.2462,0.2568,0.2572,0.2438,0.2507,0.2347,0.2414,0.2614,0.2616,0.2618,0,0.1687,0.1746,0.1834,0.1956,0.1986,0.2042,0.219,0.2252,0.2357,0.2398,0.2472,0.25,0.2581,0.2532,0.264,0.2594,0.2615,0.2626,0.2631,0.2533,0.2478,0.2393,0.2434,0.2643,0.2641,0.2639,0.2638,0,0.1691,0.1794,0.188,0.1917,0.2042,0.2109,0.2185,0.2299,0.2368,0.2484,0.2529,0.2626,0.267,0.272,0.2721,0.2699,0.2808,0.2786,0.2705,0.2696,0.2593,0.2568,0.288,0.2879,0.2879,0.2879,0.2879,0,0.1715,0.1781,0.1895,0.194,0.2068,0.2139,0.2267,0.2355,0.2456,0.2517,0.2597,0.2638,0.2716,0.2763,0.2771,0.277,0.2859,0.2733,0.2725,0.2584,0.2559,0.2784,0.2771,0.2883,0.2882,0.2881,0.288,0,0.1707,0.177,0.1883,0.2022,0.207,0.2166,0.2302,0.237,0.2478,0.2553,0.2585,0.2678,0.2726,0.2785,0.2858,0.2822,0.2842,0.2824,0.2634,0.2599,0.2684,0.2671,0.277,0.2767,0.2764,0.2762,0.276,0,0.1733,0.1785,0.1932,0.1997,0.2063,0.2192,0.2254,0.2373,0.2418,0.2538,0.2548,0.2642,0.2637,0.2712,0.2714,0.2741,0.2791,0.2582,0.2508,0.2697,0.2679,0.267,0.2661,0.2379,0.2374,0.237,0.2367,0,0.1799,0.1833,0.1916,0.2011,0.2094,0.2163,0.225,0.2272,0.2363,0.2421,0.2437,0.2448,0.2527,0.2466,0.2511,0.2492,0.256,0.2496,0.2788,0.2403,0.2329,0.231,0.2315,0.2331,0.2335,0.2338,0.234,0.2341,0.1853,0.1902,0.1969,0.2035,0.2117,0.2087,0.2093,0.2115,0.2133,0.2146,0.2233,0.2214,0.2275,0.2244,0.2196,0.2198,0.2355,0.2274,0.2287,0.2305,0.2213,0.2135,0.2085,0.2086,0.2088,0.209,0.2091,0,0.1874,0.1896,0.1981,0.2023,0.2018,0.2074,0.2054,0.1975,0.1903,0.1966,0.1968,0.183,0.1826,0.1904,0.1868,0.1868,0.1864,0.1786,0.179,0.1828,0.1861,0.1746,0.1494,0.1491,0.1489,0.1487,0,0,0.1896,0.1906,0.1893,0.1873,0.1911,0.185,0.1797,0.1663,0.1655,0.1561,0.1587,0.1741,0.1851,0.1645,0.1638,0.1566,0.1674,0.1504,0.1994,0.2037,0.2067,0.2163,0.2031,0,0,0,0,0]},{"header":{"parameterUnit":"m.s-1","parameterCategory":2,"la1":30.2991,"la2":30.254,"lo1":-89.0895,"lo2":-89.0444,"dy":0.0017,"dx":0.0017,"nx":28,"ny":28,"refTime":"2025-08-03T21:00:00:Z","depth":"2","parameterNumber":3,"parameterNumberName":"V-component_of_CURRENTS"},"data":[0,0,0,0,0,0,0,0,0,0,0,0,0,0,0,0,0,0,0,0,0,0,0,0,0,0,0,0,0,0,0,0,0,0,0,0,0,0,0,0,0,0,0,0,0,0,0,0,0,0,0,0,0,0,0,0,0,0,-0.0425,-0.0426,0,-0.0474,-0.0474,-0.0474,-0.0478,-0.0478,-0.0478,-0.0478,-0.0533,-0.0535,-0.0536,0,0,0,0,0,0,0,0,0,0,0,0,0,-0.032,-0.0322,-0.0425,-0.0426,-0.0427,-0.0474,-0.0474,-0.0474,-0.0478,-0.0478,-0.0478,-0.0478,-0.0533,-0.0535,-0.0536,0,0,0,0,0,0,0,0,0,0,0,0,0,-0.0362,-0.0322,-0.0425,-0.0439,-0.0441,-0.0474,-0.0474,-0.0475,-0.0478,-0.0478,-0.0478,-0.0478,-0.0532,-0.0534,-0.0537,-0.0553,0,0,-0.0544,-0.0545,0,0,0,0,0,0,0,0,-0.036,-0.0365,-0.0435,-0.0438,-0.044,-0.0474,-0.0458,-0.0503,-0.0478,-0.0458,-0.0478,-0.0478,-0.0518,-0.0521,-0.0523,-0.0555,-0.0558,-0.0544,-0.0545,-0.0546,-0.0547,0,0,0,0,0,0,0,-0.0357,-0.0363,-0.0439,-0.0437,-0.044,-0.0438,-0.0443,-0.0466,-0.0484,-0.046,-0.0462,-0.0476,-0.0518,-0.0521,-0.0524,-0.0558,-0.0544,-0.0546,-0.0547,-0.0548,-0.0578,-0.0577,0,0,0,0,0,0,-0.0363,-0.0361,-0.0438,-0.0441,-0.0405,-0.044,-0.0446,-0.0459,-0.0484,-0.0489,-0.0476,-0.0476,-0.0517,-0.0522,-0.0527,-0.0504,-0.0546,-0.0548,-0.055,-0.0578,-0.0578,-0.0577,0,0,0,0,0,0,-0.036,-0.0369,-0.0436,-0.0406,-0.0415,-0.0443,-0.0457,-0.046,-0.0456,-0.0496,-0.05,-0.0468,-0.0517,-0.0523,-0.0539,-0.0508,-0.0549,-0.0552,-0.0579,-0.0578,-0.0577,-0.0487,0,0,0,0,0,0,-0.0357,-0.0367,-0.0366,-0.0407,-0.0417,-0.0441,-0.0458,-0.0462,-0.0468,-0.0468,-0.0491,-0.0497,-0.0517,-0.0536,-0.0541,-0.0512,-0.0553,-0.058,-0.0579,-0.0578,-0.0491,-0.0483,-0.0477,0,0,0,0,0,-0.0353,-0.0358,-0.0366,-0.0375,-0.0419,-0.0441,-0.0445,-0.0461,-0.0467,-0.0457,-0.0479,-0.0496,-0.0532,-0.0537,-0.0544,-0.0514,-0.058,-0.0579,-0.0578,-0.0494,-0.0485,-0.0477,0,0,0,0,0,0,-0.0311,-0.036,-0.037,-0.0389,-0.0407,-0.0443,-0.0442,-0.0455,-0.0463,-0.0463,-0.0495,-0.0502,-0.0502,-0.0528,-0.0532,-0.0521,-0.0556,-0.0556,-0.049,-0.0482,-0.0475,-0.0483,-0.0555,0,0,0,0,0,-0.0303,-0.0323,-0.0359,-0.0374,-0.0379,-0.0407,-0.0415,-0.0427,-0.0449,-0.0452,-0.0468,-0.0488,-0.0503,-0.0508,-0.0527,-0.0526,-0.0571,-0.0511,-0.0504,-0.0498,-0.051,-0.056,-0.0558,-0.0573,-0.0573,-0.0573,0,0,-0.0297,-0.0324,-0.0337,-0.0366,-0.0381,-0.0376,-0.0409,-0.042,-0.0413,-0.0459,-0.0446,-0.0467,-0.05,-0.0493,-0.0494,-0.0509,-0.0512,-0.0496,-0.049,-0.0506,-0.0558,-0.0557,-0.0556,-0.0572,-0.0572,-0.0572,0,0,-0.029,-0.031,-0.0316,-0.0317,-0.0338,-0.0355,-0.0354,-0.0377,-0.038,-0.0381,-0.0407,-0.0417,-0.0433,-0.0449,-0.0461,-0.0432,-0.0476,-0.0425,-0.0391,-0.0438,-0.0437,-0.0437,-0.047,-0.0474,-0.0417,-0.0417,-0.0417,0,-0.0271,-0.0283,-0.0318,-0.0306,-0.0303,-0.0339,-0.0322,-0.0332,-0.0354,-0.0362,-0.0365,-0.0398,-0.0415,-0.0424,-0.0403,-0.0415,-0.0448,-0.0415,-0.0428,-0.043,-0.0432,-0.0466,-0.0471,-0.0413,-0.0413,-0.0414,-0.0414,0,-0.0263,-0.0253,-0.0252,-0.025,-0.025,-0.0243,-0.0261,-0.0261,-0.0272,-0.0288,-0.0299,-0.0329,-0.0351,-0.0344,-0.0361,-0.0371,-0.0391,-0.0415,-0.0448,-0.0425,-0.0462,-0.0469,-0.0406,-0.0408,-0.0409,-0.041,0,0,-0.0253,-0.0248,-0.0242,-0.0214,-0.0214,-0.0211,-0.0205,-0.0215,-0.0215,-0.0231,-0.0236,-0.025,-0.0275,-0.0292,-0.0313,-0.0345,-0.0364,-0.0373,-0.0378,-0.0402,-0.0459,-0.0437,-0.0443,-0.0389,-0.039,-0.0391,-0.0472,0,-0.0224,-0.0192,-0.0203,-0.0151,-0.0121,-0.014,-0.013,-0.0143,-0.0164,-0.0176,-0.0221,-0.0229,-0.0252,-0.0253,-0.029,-0.0348,-0.0384,-0.034,-0.0483,-0.0488,-0.0468,-0.0451,-0.0419,-0.0485,-0.048,-0.0481,-0.0482,0,-0.0194,-0.0172,-0.0128,-0.0085,-0.0077,-0.0058,-0.0054,-0.0048,-0.0087,-0.0103,-0.0137,-0.0179,-0.0216,-0.0244,-0.0348,-0.0317,-0.0382,-0.0435,-0.044,-0.0463,-0.048,-0.0514,-0.05,-0.0495,-0.0494,-0.0493,-0.0492,0,-0.015,-0.0108,-0.0074,-0.0053,-0.0025,-0.0012,-0.0002,-0.0025,-0.0022,-0.0058,-0.0063,-0.0136,-0.0155,-0.0258,-0.0347,-0.0353,-0.0471,-0.0498,-0.0548,-0.0547,-0.0572,-0.0571,-0.0592,-0.0592,-0.0592,-0.0591,-0.0591,0,-0.0096,-0.0057,-0.0046,-0.0011,0.0036,0.004,0.0071,0.0063,0.0045,0.0064,-0.0015,-0.0017,-0.016,-0.024,-0.0342,-0.0452,-0.047,-0.0547,-0.0569,-0.0536,-0.053,-0.0588,-0.0587,-0.0594,-0.0594,-0.0593,-0.0593,0,-0.0051,-0.0039,0.0012,0.0045,0.0065,0.0097,0.0134,0.0141,0.0131,0.015,0.0146,0.0066,-0.0016,-0.0164,-0.0321,-0.0425,-0.0548,-0.0587,-0.0525,-0.0538,-0.0599,-0.0592,-0.0667,-0.0667,-0.0667,-0.0666,-0.0666,0,-0.0039,-0.0008,0.0048,0.0079,0.0099,0.0149,0.0174,0.0186,0.0203,0.0218,0.0229,0.0157,0.0133,-0.0093,-0.0288,-0.0478,-0.0515,-0.0588,-0.06,-0.0594,-0.0609,-0.0602,-0.0595,-0.0596,-0.0596,-0.0595,-0.0595,0,-0.0016,-0.0,0.0039,0.0101,0.0145,0.0204,0.0255,0.0298,0.0325,0.0366,0.0417,0.0403,0.0198,0.0022,-0.025,-0.0382,-0.0556,-0.0583,-0.0611,-0.0568,-0.053,-0.0544,-0.0539,-0.059,-0.0591,-0.0591,-0.0591,-0.0592,-0.0024,0.0,0.0044,0.011,0.017,0.0258,0.0335,0.0406,0.0499,0.0601,0.0566,0.058,0.0324,0.0016,-0.0224,-0.0484,-0.0498,-0.0602,-0.0603,-0.0604,-0.0567,-0.053,-0.0583,-0.0584,-0.0584,-0.0584,-0.0584,0,-0.0051,-0.001,0.0046,0.0133,0.0217,0.0248,0.0378,0.0475,0.0637,0.0727,0.0796,0.0613,0.0389,0.0115,-0.0261,-0.0506,-0.0533,-0.0574,-0.0564,-0.0567,-0.057,-0.0531,-0.0538,-0.0538,-0.0538,-0.0538,0,0,-0.0078,-0.0028,0.0015,0.0153,0.023,0.0362,0.0463,0.0631,0.0746,0.0889,0.092,0.0857,0.0497,0.0242,-0.0097,-0.0309,-0.0375,-0.0347,-0.0363,-0.0314,-0.0313,-0.057,-0.051,0,0,0,0,0]}],[{"header":{"parameterUnit":"m.s-1","parameterCategory":2,"la1":30.2991,"la2":30.254,"lo1":-89.0895,"lo2":-89.0444,"dy":0.0017,"dx":0.0017,"nx":28,"ny":28,"refTime":"2025-08-03T21:00:00:Z","depth":"4","parameterNumber":2,"parameterNumberName":"U-component_of_CURRENTS"},"data":[0,0,0,0,0,0,0,0,0,0,0,0,0,0,0,0,0,0,0,0,0,0,0,0,0,0,0,0,0,0,0,0,0,0,0,0,0,0,0,0,0,0,0,0,0,0,0,0,0,0,0,0,0,0,0,0,0,0,0.0893,0.0894,0,0.0924,0.0924,0.0924,0.0931,0.0932,0.0932,0.0932,0.0988,0.0989,0.099,0,0,0,0,0,0,0,0,0,0,0,0,0,0.0896,0.0896,0.0893,0.0894,0.0895,0.0924,0.0924,0.0924,0.0931,0.0932,0.0932,0.0932,0.0987,0.0989,0.099,0,0,0,0,0,0,0,0,0,0,0,0,0,0.0903,0.0895,0.0893,0.0906,0.0907,0.0924,0.0924,0.0924,0.0931,0.0932,0.0932,0.0932,0.0987,0.0989,0.099,0.0995,0,0,0.0996,0.0997,0,0,0,0,0,0,0,0,0.0903,0.0902,0.0903,0.0905,0.0907,0.0928,0.0946,0.0951,0.0931,0.0917,0.0932,0.0932,0.0973,0.0976,0.0974,0.0998,0.1,0.0996,0.0998,0.0998,0.0999,0,0,0,0,0,0,0,0.0902,0.0902,0.0901,0.0904,0.0906,0.0929,0.0929,0.0946,0.094,0.0918,0.092,0.0931,0.0973,0.0972,0.0975,0.1001,0.0996,0.0998,0.0999,0.1,0.1094,0.1095,0,0,0,0,0,0,0.0904,0.0901,0.09,0.0902,0.0911,0.0928,0.0929,0.0917,0.0939,0.0944,0.0931,0.0931,0.0969,0.0973,0.0978,0.1064,0.0998,0.1,0.1001,0.1093,0.1094,0.1096,0,0,0,0,0,0,0.0904,0.0903,0.0899,0.0907,0.0909,0.0928,0.0915,0.0918,0.0952,0.0949,0.0953,0.0967,0.0969,0.0975,0.1023,0.1063,0.1001,0.1003,0.1091,0.1093,0.1095,0.1185,0,0,0,0,0,0,0.0903,0.0902,0.0905,0.0907,0.0909,0.0907,0.0916,0.0918,0.0958,0.096,0.0981,0.0984,0.097,0.102,0.1025,0.1064,0.1004,0.109,0.1092,0.1095,0.1181,0.119,0.1198,0,0,0,0,0,0.0903,0.09,0.0904,0.0906,0.0908,0.0908,0.091,0.0923,0.096,0.0959,0.0997,0.0985,0.1039,0.1024,0.1029,0.1069,0.1088,0.1091,0.1094,0.1177,0.1188,0.1198,0,0,0,0,0,0,0.0907,0.0901,0.0906,0.0903,0.0907,0.0911,0.0928,0.095,0.098,0.1005,0.101,0.1014,0.1066,0.1057,0.104,0.1101,0.1059,0.1064,0.112,0.1131,0.114,0.1123,0.1006,0,0,0,0,0,0.0909,0.0902,0.0903,0.0903,0.0913,0.0934,0.0947,0.0959,0.0984,0.0999,0.101,0.1039,0.1076,0.1098,0.1104,0.115,0.1127,0.1176,0.1185,0.1192,0.1181,0.1174,0.1181,0.1106,0.1106,0.1106,0,0,0.0911,0.091,0.0907,0.0904,0.0919,0.0937,0.0941,0.097,0.1007,0.1003,0.1056,0.107,0.1094,0.1136,0.1158,0.114,0.1209,0.1196,0.1203,0.1187,0.1178,0.1185,0.1192,0.1108,0.1108,0.1107,0,0,0.0914,0.0915,0.0916,0.0927,0.0954,0.0962,0.0983,0.1,0.103,0.1092,0.1096,0.1133,0.1188,0.119,0.1214,0.1279,0.1253,0.1291,0.1331,0.1327,0.1332,0.1337,0.1348,0.1353,0.13,0.13,0.13,0,0.0922,0.0923,0.0918,0.0937,0.0963,0.0984,0.1013,0.1044,0.1075,0.1101,0.1124,0.1194,0.1216,0.1267,0.1294,0.13,0.1294,0.1295,0.1338,0.1342,0.1345,0.1355,0.1359,0.1305,0.1304,0.1304,0.1303,0,0.0928,0.0946,0.0957,0.0981,0.1003,0.1031,0.1073,0.11,0.1162,0.1184,0.125,0.1275,0.1311,0.1332,0.1353,0.1385,0.1374,0.1348,0.131,0.1358,0.1366,0.1369,0.1312,0.131,0.1309,0.1307,0,0,0.0899,0.0949,0.0958,0.099,0.1038,0.1055,0.1122,0.1167,0.1214,0.1262,0.1314,0.139,0.1389,0.1412,0.1418,0.1422,0.1469,0.1408,0.1405,0.1419,0.1474,0.1422,0.142,0.1452,0.1452,0.1453,0.1482,0,0.0911,0.0955,0.0981,0.1042,0.1074,0.1118,0.1169,0.1218,0.1275,0.1313,0.1363,0.1412,0.1429,0.1457,0.147,0.1459,0.1475,0.1464,0.1425,0.1423,0.137,0.142,0.1453,0.1484,0.1484,0.1484,0.1485,0,0.0911,0.0945,0.1005,0.1079,0.1099,0.1143,0.1222,0.127,0.1327,0.1377,0.1424,0.1442,0.1484,0.1483,0.1504,0.1499,0.1501,0.1488,0.1488,0.1401,0.1375,0.1417,0.1489,0.1489,0.1488,0.1488,0.1488,0,0.0892,0.0965,0.1018,0.1046,0.1125,0.1176,0.1225,0.1289,0.1333,0.1405,0.1434,0.1478,0.1516,0.1514,0.1532,0.1521,0.1533,0.1509,0.146,0.1457,0.1454,0.1448,0.151,0.151,0.151,0.151,0.151,0,0.0887,0.0932,0.1022,0.1054,0.1122,0.1185,0.1252,0.1309,0.1372,0.1402,0.1462,0.1486,0.1525,0.154,0.1538,0.152,0.1549,0.1469,0.1457,0.1497,0.1495,0.1458,0.1451,0.1511,0.1511,0.1511,0.151,0,0.0854,0.0911,0.0978,0.108,0.1117,0.1171,0.1269,0.1297,0.1375,0.1415,0.144,0.151,0.1542,0.1561,0.1566,0.153,0.1508,0.1491,0.1557,0.1548,0.1435,0.1433,0.1432,0.143,0.1429,0.1428,0.1427,0,0.084,0.0869,0.0988,0.1022,0.1078,0.116,0.1196,0.1296,0.1323,0.1412,0.1416,0.1484,0.1517,0.1489,0.1524,0.1518,0.1499,0.1481,0.1435,0.1437,0.1425,0.1426,0.1426,0.1424,0.1424,0.1424,0.1423,0,0.0804,0.0853,0.0904,0.0971,0.1034,0.1087,0.1159,0.1176,0.1266,0.1343,0.1368,0.1387,0.1425,0.1449,0.1466,0.1451,0.1484,0.1466,0.1468,0.1424,0.1428,0.1418,0.1419,0.1418,0.1419,0.1419,0.142,0,0.0767,0.0787,0.0843,0.0898,0.0965,0.099,0.1048,0.1087,0.1135,0.1243,0.1253,0.1327,0.141,0.1415,0.1422,0.142,0.1394,0.1335,0.1343,0.1349,0.131,0.1301,0.1244,0,0,0,0,0,0.0716,0.0711,0.0754,0.0802,0.0865,0.0906,0.0994,0.1047,0.1143,0.1133,0.1194,0.1226,0.1263,0.1313,0.1293,0.1382,0.1392,0.1353,0.1326,0.1391,0.1397,0.1358,0,0,0,0,0,0,0.0662,0.0692,0.0713,0.0705,0.0723,0.0775,0.0837,0.0911,0.0921,0.103,0.1064,0.1149,0.1209,0.1253,0.1263,0.1278,0.1238,0.1415,0.1412,0.1388,0.1393,0.1397,0.136,0,0,0,0,0]},{"header":{"parameterUnit":"m.s-1","parameterCategory":2,"la1":30.2991,"la2":30.254,"lo1":-89.0895,"lo2":-89.0444,"dy":0.0017,"dx":0.0017,"nx":28,"ny":28,"refTime":"2025-08-03T21:00:00:Z","depth":"4","parameterNumber":3,"parameterNumberName":"V-component_of_CURRENTS"},"data":[0,0,0,0,0,0,0,0,0,0,0,0,0,0,0,0,0,0,0,0,0,0,0,0,0,0,0,0,0,0,0,0,0,0,0,0,0,0,0,0,0,0,0,0,0,0,0,0,0,0,0,0,0,0,0,0,0,0,-0.0079,-0.0079,0,-0.0073,-0.0073,-0.0073,-0.0104,-0.0104,-0.0105,-0.0106,-0.0187,-0.0188,-0.019,0,0,0,0,0,0,0,0,0,0,0,0,0,-0.0127,-0.0126,-0.0079,-0.0079,-0.0079,-0.0073,-0.0073,-0.0073,-0.0104,-0.0105,-0.0105,-0.0106,-0.0186,-0.0188,-0.019,0,0,0,0,0,0,0,0,0,0,0,0,0,-0.0113,-0.0126,-0.008,-0.0093,-0.0094,-0.0073,-0.0073,-0.0073,-0.0103,-0.0105,-0.0106,-0.0107,-0.0186,-0.0188,-0.019,-0.018,0,0,-0.0197,-0.0198,0,0,0,0,0,0,0,0,-0.0114,-0.0112,-0.0091,-0.0092,-0.0093,-0.0089,-0.012,-0.0113,-0.0103,-0.0101,-0.0106,-0.0107,-0.0161,-0.0165,-0.0162,-0.0184,-0.0188,-0.0197,-0.0198,-0.0199,-0.02,0,0,0,0,0,0,0,-0.0115,-0.0112,-0.0078,-0.0091,-0.0092,-0.0102,-0.0101,-0.0118,-0.0127,-0.0101,-0.0103,-0.01,-0.0162,-0.0159,-0.0164,-0.0189,-0.0197,-0.0199,-0.02,-0.0201,-0.0231,-0.0231,0,0,0,0,0,0,-0.0111,-0.0113,-0.0078,-0.0078,-0.0105,-0.01,-0.0099,-0.009,-0.0125,-0.013,-0.0099,-0.0102,-0.0155,-0.0162,-0.0167,-0.021,-0.0199,-0.0201,-0.0202,-0.0232,-0.0231,-0.023,0,0,0,0,0,0,-0.0112,-0.0108,-0.0079,-0.0095,-0.0092,-0.0098,-0.0087,-0.009,-0.0096,-0.0122,-0.013,-0.0104,-0.0156,-0.0164,-0.0184,-0.0211,-0.0202,-0.0204,-0.0232,-0.0231,-0.0231,-0.0262,0,0,0,0,0,0,-0.0113,-0.0108,-0.0101,-0.0094,-0.0091,-0.0053,-0.0086,-0.0089,-0.0091,-0.0094,-0.0129,-0.0137,-0.0158,-0.018,-0.0186,-0.0214,-0.0206,-0.0233,-0.0232,-0.0231,-0.0261,-0.0262,-0.0263,0,0,0,0,0,-0.0115,-0.009,-0.0101,-0.0097,-0.008,-0.0051,-0.005,-0.006,-0.009,-0.0074,-0.0111,-0.0136,-0.0179,-0.0181,-0.0188,-0.0218,-0.0233,-0.0232,-0.0231,-0.0261,-0.0262,-0.0263,0,0,0,0,0,0,-0.0104,-0.009,-0.0102,-0.0075,-0.0062,-0.0056,-0.0043,-0.006,-0.0075,-0.0091,-0.0129,-0.0138,-0.0166,-0.0173,-0.0176,-0.0218,-0.021,-0.0211,-0.0231,-0.0232,-0.0233,-0.0249,-0.0207,0,0,0,0,0,-0.0099,-0.0078,-0.007,-0.0046,-0.004,-0.0048,-0.0042,-0.005,-0.006,-0.0068,-0.009,-0.0123,-0.0162,-0.0183,-0.0197,-0.0221,-0.0232,-0.024,-0.0241,-0.0242,-0.0256,-0.0296,-0.0303,-0.0227,-0.0227,-0.0227,0,0,-0.0089,-0.0078,-0.0067,-0.0043,-0.0039,-0.0029,-0.0046,-0.0031,-0.0046,-0.0076,-0.0095,-0.012,-0.0164,-0.0193,-0.0207,-0.0209,-0.0262,-0.0241,-0.0242,-0.0256,-0.0296,-0.0304,-0.0311,-0.0226,-0.0226,-0.0226,0,0,-0.005,-0.0048,-0.0019,-0.0011,0.0001,-0.0007,-0.0005,0.0001,-0.002,-0.0035,-0.0076,-0.012,-0.0144,-0.0198,-0.0232,-0.0242,-0.0259,-0.0236,-0.0269,-0.0308,-0.0316,-0.0323,-0.0322,-0.0329,-0.0245,-0.0245,-0.0245,0,-0.004,-0.0013,-0.0005,0.0018,0.0014,-0.0002,0.0008,-0.0009,-0.0013,-0.004,-0.004,-0.0118,-0.016,-0.0242,-0.0257,-0.0253,-0.0254,-0.0271,-0.0313,-0.032,-0.0327,-0.0325,-0.0332,-0.0247,-0.0246,-0.0246,-0.0246,0,0.0013,0.0024,0.0044,0.0053,0.0055,0.0067,0.0039,0.0028,-0.0007,-0.0032,-0.0089,-0.0138,-0.0188,-0.0215,-0.0255,-0.0328,-0.0303,-0.0306,-0.032,-0.0337,-0.0333,-0.034,-0.0249,-0.0248,-0.0248,-0.0247,0,0,0.0049,0.0074,0.0077,0.0069,0.0064,0.0069,0.0036,0.0,-0.0029,-0.0059,-0.0098,-0.0201,-0.022,-0.0259,-0.0303,-0.0362,-0.0421,-0.0362,-0.0363,-0.0376,-0.0474,-0.0439,-0.0442,-0.043,-0.0432,-0.0434,-0.0443,0,0.0079,0.0114,0.0114,0.0115,0.0117,0.0079,0.0054,0.0013,-0.0022,-0.0051,-0.0143,-0.0178,-0.0238,-0.0259,-0.0335,-0.039,-0.0444,-0.0417,-0.0442,-0.0442,-0.0423,-0.0452,-0.044,-0.0448,-0.045,-0.0451,-0.0452,0,0.0116,0.0129,0.0145,0.012,0.0118,0.0113,0.0054,0.0035,-0.0026,-0.0052,-0.0115,-0.0147,-0.0251,-0.0278,-0.0411,-0.0383,-0.044,-0.0486,-0.0487,-0.0455,-0.0422,-0.0431,-0.0465,-0.0464,-0.0463,-0.0462,-0.0461,0,0.0118,0.0136,0.014,0.0136,0.012,0.0101,0.0082,0.0033,0.0021,-0.0036,-0.0033,-0.0145,-0.0173,-0.0282,-0.0388,-0.0394,-0.0505,-0.0514,-0.0535,-0.0531,-0.0547,-0.0539,-0.0612,-0.0612,-0.0612,-0.0612,-0.0612,0,0.0131,0.0129,0.0143,0.0143,0.013,0.0116,0.0101,0.0065,0.0053,0.0054,-0.0023,-0.0032,-0.0178,-0.0249,-0.0363,-0.0463,-0.0483,-0.0551,-0.0546,-0.0552,-0.0545,-0.055,-0.0543,-0.0613,-0.0613,-0.0613,-0.0613,0,0.0118,0.0139,0.0134,0.0131,0.0133,0.0118,0.0128,0.0134,0.0115,0.0124,0.0119,0.0056,-0.0039,-0.0171,-0.0323,-0.0404,-0.0516,-0.0547,-0.0516,-0.0506,-0.0518,-0.0511,-0.0567,-0.0566,-0.0565,-0.0565,-0.0564,0,0.0102,0.011,0.0123,0.0134,0.0135,0.0133,0.0151,0.0152,0.0182,0.0179,0.02,0.0132,0.0066,-0.0098,-0.0262,-0.0447,-0.0487,-0.0524,-0.0572,-0.0532,-0.052,-0.0515,-0.051,-0.0563,-0.0563,-0.0563,-0.0563,0,0.0054,0.0072,0.0076,0.0131,0.0156,0.0183,0.0219,0.0253,0.0274,0.0262,0.0279,0.0192,0.0096,-0.0065,-0.0202,-0.0349,-0.0493,-0.0518,-0.0521,-0.0566,-0.0528,-0.0516,-0.0512,-0.056,-0.0561,-0.0561,-0.0561,0,0.0006,0.0017,0.0068,0.0118,0.0165,0.0245,0.0245,0.0305,0.0338,0.0354,0.0357,0.024,0.0171,-0.0012,-0.0148,-0.0279,-0.0326,-0.0369,-0.0381,-0.0386,-0.0347,-0.0273,-0.0232,0,0,0,0,0,-0.003,0.0027,0.0062,0.0143,0.0204,0.025,0.0314,0.0327,0.0361,0.039,0.0382,0.0292,0.0114,0.0034,-0.0091,-0.0164,-0.0367,-0.0314,-0.0427,-0.0547,-0.0549,-0.0535,0,0,0,0,0,0,-0.0051,-0.0003,0.0066,0.018,0.0242,0.0328,0.0372,0.0385,0.0408,0.0409,0.0318,0.0269,0.0088,0.0185,-0.009,-0.0132,-0.0217,-0.0406,-0.0408,-0.0545,-0.0548,-0.055,-0.0536,0,0,0,0,0]}]]